WNISAT-1

Last updated on Sat Jul 05 2025 00:03:43 GMT+0000 (Coordinated Universal Time)

1 39423U 13066H 25185.38317644 .00000658 00000+0 13092-3 0 9990 2 39423 97.6794 355.3577 0164037 247.1018 111.2795 14.57132128616063
UTC large
Height (km)
Speed (km/s)
/
Latitude / Longitude
Inclination (degrees)
Orbital Period (minutes)
Azimuth
Elevation
Range (km)
Doppler Factor

Next 0 passes for location: London (51.5072 / 0.1276)

Sorry there are no passes over London.